Eola, IL (60519)

10:52 AM CST on February 13, 2016 (GMT -0600)
Oakhurst | | Change Station
CLOSE
Current Station
Personal Weather Station
Location: Aurora, IL
Elevation: 712 ft
Nearby Weather Stations

Elev 712 ft 41.76 °N, 88.25 °W | Updated 1 second ago

Clear
Clear
12.9 °F
Feels Like 13 °F
N
1.1
Wind Variable Wind from SE
Gusts 2.5 mph

Today
High -- | Low -- °F
--% Chance of Precip.
Yesterday
High -- | Low -- °F
Precip. -- in
Pressure 30.64 in
Visibility 10.0 miles
Clouds Clear
Windchill 13 °F
Dew Point -12 °F
Humidity 31%
Rainfall 0.00 in
Snow Depth Not available.
6:51 AM 5:23 PM
Waxing Crescent, 32% visible
METAR KDPA 131552Z 31009KT 10SM CLR M13/M22 A3059 RMK AO2 SLP375 T11331222
Pressure 30.64 in
Visibility 10.0 miles
Clouds Clear
Windchill 13 °F
Dew Point -12 °F
Humidity 31%
Rainfall 0.00 in
Snow Depth Not available.
6:51 AM 5:23 PM
Waxing Crescent, 32% visible
METAR KDPA 131552Z 31009KT 10SM CLR M13/M22 A3059 RMK AO2 SLP375 T11331222

10-Day Weather Forecast

Almanac

Astronomy

Feb. 13, 2016 Rise Set
Actual Time
Civil Twilight
Nautical Twilight
Astronomical Twilight
Moon
Length of Visible Light
Length of Day
Tomorrow will be .
, % of the Moon is Illuminated

Today's Extremes

State Highs State Lows

Community

WunderPhotos

Upload Photos

1,892,604 photos uploaded!

WunderBlog® & News

Nearby

Air Quality

  Air Quality AQ Index Pollutant
Not available.

Snow Depth

Station Depth Elevation

Earthquake Activity

City Distance Mag. Time & Date
Minimum magnitude displayed is 2.5.

Coastal Water Temperatures

Place Temperature

Stations

Nearby Weather Stations

Station Location Temp. Windchill Dew Point Humidity Wind Precip. Elev Updated Type
                   

Watches & Warnings

There are currently no watches in effect.